Find Starlink 3226

NORAD ID: 49740 Int'l Des: 2021-115 Owner: SPXS Country: US Constellation: starlink operational
LEOCIRCULAR

当前视图

正在加载3D地球...

About Starlink 3226

Starlink 3226 (NORAD 49740) is a starlink constellation satellite (v1.5) launched Dec 2, 2021 by SPXS of US. It operates in LEO, CIRCULAR orbit with a mass of 290.00 kg.

关于 Starlink 3226

正在加载描述...

即将过境

Passes for default location (London). Set your location on the main map for personalized predictions.

高度历史

Loading altitude history...

两行轨道根数

1 49740U 21115S 26171.41668980 .00036167 00000-0 19270-2 0 9997
2 49740 53.1608 47.7482 0000515 166.0076 182.1184 15.14887627 5771
Epoch: Jun 20, 2026 • Age: 21 hours

当前状态

高度 524.5 km
速度 7.61 km/s
星下点 40.41°N, 166.99°E
发射日期 Dec 2, 2021
运行时间 4.5 years
类型 internet

技术详情

分类 Payload
质量 290.00 kg
干质量 270.00 kg
总质量 290.00 kg
长度 0.20 m
直径 2.80 m
跨度 9.00 m
形状 Box + pan
制造商 SPXS
平台类型 Starlink
阶段状态 In Orbit
所有者/国家 SPXS/US

Most Searched